Weather History for Abilene Dyess, TX

Change the Weather History Date:

Saturday, October 13, 2012

  Actual Average Record
Temperature  
Mean Temperature 76 °F -  
Max Temperature 86 °F 76 °F 91 °F (1999)
Min Temperature 68 °F 55 °F 42 °F (2006)
Cooling Degree Days 12    
Growing Degree Days 26 (Base 50)    
Moisture  
Dew Point 66 °F    
Average Humidity 74    
Maximum Humidity 84    
Minimum Humidity 53    
Precipitation  
Precipitation 0.10 in - - ()
Sea Level Pressure  
Sea Level Pressure 29.85 in    
Wind  
Wind Speed 21 mph (South)    
Max Wind Speed 28 mph    
Max Gust Speed 46 mph    
Visibility 10 miles    
Events Rain , Hail , Thunderstorm    
Averages and records for this station are not official NWS values.
T = Trace of Precipitation, MM = Missing Value Source: NWS Daily Summary

Daily Weather History Graph

Daily Weather History Graph

Search for Another Location

Airport:

Trip Planner

Search our weather history database for the weather conditions in past years. The results will help you decide how hot, cold, wet, or windy it might be!

Date:

Astronomy

Oct. 13, 2012 Rise Set
Actual Time 7:42 AM CDT 7:08 PM CDT
Civil Twilight 7:17 AM CDT 7:33 PM CDT
Nautical Twilight 6:48 AM CDT 8:01 PM CDT
Astronomical Twilight 6:20 AM CDT 8:29 PM CDT
Moon 5:39 AM CDT (10/13) 5:50 PM CDT (10/13)
Length of Visible Light 12h 15m
Length of Day
11h 26m
Waning Crescent, 5% of the Moon is Illuminated
Oct 13
Waning Crescent
Oct 15
New
Oct 21
First Quarter
Oct 29
Full
Nov 6
Last Quarter

Hourly Weather History & Observations

Time (CDT) Temp. Heat Index Dew Point Humidity Pressure Visibility Wind Dir Wind Speed Gust Speed Precip Events Conditions
12:55 AM 73.8 °F - 64.2 °F 72% 29.96 in 10.0 mi SSE 21.9 mph 27.6 mph N/A   Partly Cloudy
1:55 AM 73.0 °F - 65.1 °F 76% 29.92 in 10.0 mi SSE 25.3 mph 31.1 mph N/A   Scattered Clouds
2:55 AM 73.0 °F - 66.4 °F 80% 29.91 in 10.0 mi South 18.4 mph - N/A   Mostly Cloudy
3:55 AM 73.0 °F - 67.1 °F 82% 29.89 in 10.0 mi SSE 21.9 mph 28.8 mph N/A   Scattered Clouds
4:00 AM 73.4 °F - 68.0 °F 83% 29.88 in 10.0 mi SSE 21.9 mph - N/A   Mostly Cloudy
4:37 AM 73.4 °F - 68.0 °F 83% 29.88 in 10.0 mi South 20.7 mph 31.1 mph N/A   Mostly Cloudy
4:40 AM 73.4 °F - 68.0 °F 83% 29.87 in 10.0 mi South 23.0 mph 31.1 mph N/A   Mostly Cloudy
4:55 AM 73.2 °F - 67.6 °F 83% 29.88 in 10.0 mi South 27.6 mph 33.4 mph N/A   Mostly Cloudy
5:55 AM 73.9 °F - 68.0 °F 82% 29.91 in 10.0 mi South 16.1 mph - N/A   Overcast
6:55 AM 73.4 °F - 68.2 °F 84% 29.90 in 10.0 mi South 21.9 mph 31.1 mph N/A   Partly Cloudy
7:55 AM 74.1 °F - 68.2 °F 82% 29.89 in 10.0 mi South 20.7 mph 26.5 mph N/A   Partly Cloudy
8:55 AM 74.3 °F - 67.8 °F 80% 29.90 in 10.0 mi South 19.6 mph - N/A   Mostly Cloudy
9:55 AM 75.4 °F - 68.0 °F 78% 29.89 in 10.0 mi South 26.5 mph 33.4 mph N/A   Mostly Cloudy
10:55 AM 75.7 °F - 68.2 °F 77% 29.90 in 10.0 mi South 23.0 mph 33.4 mph N/A   Mostly Cloudy
11:01 AM 75.2 °F - 68.0 °F 78% 29.89 in 10.0 mi South 24.2 mph 34.5 mph N/A Rain Light Rain
11:12 AM 75.2 °F - 68.0 °F 78% 29.94 in 10.0 mi South 23.0 mph 28.8 mph N/A Rain , Thunderstorm Light Thunderstorms and Rain
11:25 AM 75.2 °F - 68.0 °F 78% 29.90 in 10.0 mi South 20.7 mph 28.8 mph N/A Thunderstorm Overcast
11:55 AM 77.2 °F - 68.7 °F 75% 29.89 in 10.0 mi South 26.5 mph 33.4 mph 0.00 in   Overcast
12:55 PM 79.9 °F - 68.9 °F 69% 29.87 in 10.0 mi South 25.3 mph 34.5 mph N/A   Mostly Cloudy
1:54 PM 80.6 °F 83.9 °F 69.8 °F 70% 29.84 in 10.0 mi South 17.3 mph 29.9 mph N/A   Mostly Cloudy
1:55 PM 81.5 °F 84.8 °F 69.3 °F 66% 29.84 in 10.0 mi South 18.4 mph 29.9 mph N/A   Mostly Cloudy
2:07 PM 82.4 °F 86.3 °F 69.8 °F 66% 29.83 in 10.0 mi South 23.0 mph 29.9 mph N/A   Mostly Cloudy
2:11 PM 82.4 °F 86.3 °F 69.8 °F 66% 29.82 in 10.0 mi South 26.5 mph 32.2 mph N/A   Mostly Cloudy
2:16 PM 80.6 °F 83.9 °F 69.8 °F 70% 29.82 in 10.0 mi South 20.7 mph 32.2 mph N/A   Mostly Cloudy
2:55 PM 82.2 °F 85.8 °F 69.3 °F 65% 29.78 in 10.0 mi South 24.2 mph 33.4 mph N/A   Scattered Clouds
3:55 PM 85.3 °F 88.5 °F 67.8 °F 56% 29.76 in 10.0 mi SSW 21.9 mph 31.1 mph N/A   Mostly Cloudy
4:55 PM 85.5 °F 87.9 °F 66.7 °F 53% 29.75 in 10.0 mi SSW 23.0 mph 29.9 mph N/A   Partly Cloudy
5:54 PM 82.4 °F 85.4 °F 68.0 °F 62% 29.75 in 10.0 mi SSW 18.4 mph 21.9 mph N/A Thunderstorm Light Drizzle
5:55 PM 82.6 °F 85.3 °F 67.6 °F 60% 29.75 in 10.0 mi SSW 17.3 mph 21.9 mph 0.00 in   Light Drizzle
6:12 PM 78.8 °F - 69.8 °F 74% 29.78 in 5.0 mi SW 25.3 mph 38.0 mph N/A Rain , Hail , Thunderstorm Light Thunderstorms and Rain
6:18 PM 71.6 °F - 60.8 °F 69% 29.77 in 2.5 mi South 19.6 mph 46.0 mph N/A Rain , Thunderstorm Light Thunderstorms and Rain
6:20 PM 69.8 °F - 60.8 °F 73% 29.78 in 3.0 mi South 15.0 mph 46.0 mph N/A Rain , Thunderstorm Light Thunderstorms and Rain
6:28 PM 68.0 °F - 60.8 °F 78% 29.78 in 10.0 mi SSE 8.1 mph - N/A Thunderstorm Thunderstorm
6:36 PM 69.8 °F - 60.8 °F 73% 29.78 in 10.0 mi SSW 9.2 mph - N/A Thunderstorm Partly Cloudy
6:55 PM 70.7 °F - 64.4 °F 80% 29.79 in 10.0 mi SSW 6.9 mph - 0.10 in   Clear
7:55 PM 70.7 °F - 64.9 °F 82% 29.80 in 10.0 mi South 9.2 mph - N/A   Clear
8:55 PM 72.1 °F - 66.2 °F 82% 29.83 in 10.0 mi WSW 5.8 mph - N/A   Clear
9:55 PM 73.2 °F - 64.4 °F 74% 29.87 in 10.0 mi West 9.2 mph - N/A   Clear
10:55 PM 68.2 °F - 62.4 °F 82% 29.91 in 10.0 mi West 8.1 mph - N/A   Clear
11:55 PM 68.9 °F - 51.1 °F 53% 29.92 in 10.0 mi WNW 8.1 mph - N/A   Clear